Baku airport (UBBB)

baku-airport

Baku International Airport

Heydar Aliyev International Airport is the main international airport in Azerbaijan located 20 km (12 mi) northeast of the capital Baku. The airport is the home of Azerbaijan Airlines, the national flag carrier. It is the busiest airport in Azerbaijan and of the Caucasus.

ICAO: UBBB, IATA: GYD

Charts: Jeppesen

Sceneries: freeware demos w. reduced resolution

 fs9     fsx     Prepar

payware: http://www.drzewiecki-design.net/

METAR:

UBBB 052130Z 17006KT 9999 BKN042 06/04 Q1032 R88/CLRD// NOSIG

TAF TAF UBBB 051706Z 0518/0618 VRB04KT 9999 SCT030 BKN100 TX08/0610Z TN04/0602Z BECMG 0520/0522 12006KT TEMPO 0522/0604 VRB04KT 4000 BR SCT012 TEMPO 0604/0615 16012KT